DECAYED

OBJECT P, 51837 (Decayed)

Orbit data source: Space-Track

You're viewing an Uncataloged Satellite

Recently launched and/or uncataloged satellites may have evolving metadata. Metadata may include but not limited to: Owner, Maufacturer, Bus, Motor, and Mission.

OBJECT P, 51837 was a Chinese satellite in LEO that was launched on Sun, 27 Feb 2022 UTC via a CHANG ZHENG 8 launch vehicle from the Wenchang Satellite Launch Center (WSC). Unknown objects in Earth's orbit typically refer to objects detected orbiting the Earth but have not yet been identified or cataloged. These objects could be anything from previously untracked satellites, spent rocket stages, debris from satellite collisions, or even natural meteoroids temporarily captured by Earth's gravity. This object's orbit decayed before it could be identified.

Not visible in the next 10 days
OBJECT P details
Identifier
51837, 2022-019P
Orbit
Decayed
Last TLE update4 months ago
Origin
Flag of CNCTYK/YOUD (CN / PRC)
ManufacturerChangsha Tianyi
MissionDecayed Commercial Science
Bus & MotorCUBESAT 6U?, Unknown motor
Mass14 kg wet, 14 kg dry
Launch date (UTC)
2022-02-27 (3 years ago)
Launch vehicle
CHANG ZHENG 8
Launch site
Wenchang Satellite Launch Center (WSC)
Object typeUnknown
Shape & HBRBox + 2 Pan, 1 m
Radar Cross Section0.126 m², Medium (>0.1 m² and < 1m²)

Expand to show TLE details & history

TLE from 4 months ago
0 OBJECT P
1 51837U 22019P   24251.77527469  .18198306  25886-5  20618-3 0  9999
2 51837  97.3859 338.7352 0011792 272.7734  87.2220 16.49764729140900
Epoch: 2024-09-07T18:36Z
Definitive object data (Epoch: 2024-09-07T18:36:23.733Z)
Latitude-0.00009°
Longitude72.3077°
Altitude142.856 km
Speed7.821 km/s
True Right ascension22h 34m 56s
True Declination0° 00' 00"
Sunlit
Object was in full shadow at TLE epoch
Visualization observer readout
Observer readout values are unavailable because the object's trajectory could not be propagated. This is usually caused when the trajectory data is faulty or the object's orbit has decayed.
Visualization observer readout
Observer readout values are unavailable because the object's trajectory could not be propagated. This is usually caused when the trajectory data is faulty or the object's orbit has decayed.
Orbital elements
Apogee altitude144.432 km
Perigee altitude129.067 km
Semi-major axis6,514.886 km
Eccentricity0.0011792
Inclination97.3859°
RAAN338.7352°
Arg. of periapsis272.7734°
True anomaly87.35698°
Mean anomaly87.222°
Eccentric anomaly87.28949°
Mean motion4.12746 °/min
BSTAR0.00020618
Orbital period87.22 mins
Loading maneuver chart data...
Loading historical data...
Loading historical data...
Loading historical data...
Loading historical data...
Loading historical data...
Loading historical data...
Loading historical data...

OBJECT P Visibility forecast

Observer location: undefined°, undefined

This satellite is decayed
Span
Click to sort rows by Start time (UTC) header in descending order
Start Az.
Max El. time (UTC)
Max El. Az.
Max El.
End time (UTC)
End Az.
|